Date String (YYYY-MM-DD hh:mm:ss) UTC,Instrument flags,Ambient pressure (hPa),Sample flow (lpm),Bypass flow (lpm),Sample temperature (°C),Ambient temperature (°C),ASC tube jacket temperature (°C),LED temperature (°C),Box temperature (°C),Sample RH (%),Span deviation,Mass concentration (μg/m³),Mass concentration (μg/m³),Mass concentration (μg/m³)
DateTimeUTC,F1_M11,P_M11,Q1_M11,Q2_M11,T1_M11,T2_M11,T3_M11,T4_M11,T5_M11,U1_M11,ZSPAN_M11,X0_M11,X2_M11,X1_M11
2022-06-13 07:00:00,,0816.4,5.01,0.00,29.7,28.7,00.0,38.4,31.6,11.3,0000.0,0016.00,0006.41,0004.91
2022-06-13 07:01:00,,0816.4,5.00,0.00,29.6,27.9,00.0,38.3,31.4,11.0,0000.0,0016.26,0006.37,0004.91
2022-06-13 07:02:00,,0816.6,5.01,0.00,29.5,27.5,00.0,38.3,31.3,11.3,0000.0,0016.28,0006.39,0004.91
2022-06-13 07:03:00,,0816.4,4.99,0.00,29.5,27.4,00.0,38.3,31.2,11.6,0000.0,0015.83,0006.40,0004.92
2022-06-13 07:04:00,,0816.4,5.00,0.00,29.4,27.5,00.0,38.3,31.1,11.6,0000.0,0016.25,0006.40,0004.92
2022-06-13 07:05:00,,0816.4,5.00,0.00,29.4,27.6,00.0,38.3,31.1,11.8,0000.0,0016.56,0006.45,0004.91
2022-06-13 07:06:00,,0816.4,5.01,0.00,29.4,27.7,00.0,38.3,31.2,11.9,0000.0,0016.30,0006.54,0004.92
2022-06-13 07:07:00,,0816.5,4.99,0.00,29.4,27.8,00.0,38.3,31.2,11.7,0000.0,0016.60,0006.52,0004.93
2022-06-13 07:08:00,,0816.5,5.00,0.00,29.4,27.9,00.0,38.3,31.2,11.6,0000.0,0016.62,0006.60,0004.94
2022-06-13 07:09:00,,0816.4,5.00,0.00,29.4,28.0,00.0,38.3,31.2,12.0,0000.0,0017.05,0006.66,0004.96
2022-06-13 07:10:00,,0816.6,5.00,0.00,29.4,28.1,00.0,38.3,31.3,11.8,0000.0,0017.33,0006.71,0004.96
2022-06-13 07:11:00,,0816.4,5.00,0.00,29.4,28.2,00.0,38.3,31.3,11.6,0000.0,0017.38,0006.70,0004.95
2022-06-13 07:12:00,,0816.4,5.00,0.00,29.4,28.3,00.0,38.3,31.3,11.3,0000.0,0017.62,0006.74,0004.94
2022-06-13 07:13:00,,0816.4,5.00,0.00,29.4,28.4,00.0,38.3,31.3,11.5,0000.0,0017.36,0006.69,0004.94
2022-06-13 07:14:00,,0816.4,4.99,0.00,29.4,28.4,00.0,38.3,31.4,11.6,0000.0,0017.03,0006.63,0004.93
2022-06-13 07:15:00,,0816.3,5.00,0.00,29.5,28.5,00.0,38.3,31.4,11.5,0000.0,0017.30,0006.68,0004.94
2022-06-13 07:16:00,,0816.4,5.01,0.00,29.5,28.5,00.0,38.3,31.4,11.4,0000.0,0016.25,0006.72,0004.95
2022-06-13 07:17:00,,0816.3,5.01,0.00,29.5,28.6,00.0,38.3,31.4,11.3,0000.0,0016.54,0006.70,0004.94
2022-06-13 07:18:00,,0816.4,4.99,0.00,29.5,28.6,00.0,38.3,31.5,11.6,0000.0,0016.52,0006.70,0004.94
2022-06-13 07:19:00,,0816.4,5.00,0.00,29.5,28.6,00.0,38.4,31.5,11.5,0000.0,0015.89,0006.64,0004.95
2022-06-13 07:20:00,,0816.4,5.01,0.00,29.6,28.7,00.0,38.4,31.5,11.2,0000.0,0015.85,0006.62,0004.96
2022-06-13 07:21:00,,0816.5,5.00,0.00,29.6,28.7,00.0,38.4,31.5,11.2,0000.0,0017.27,0006.65,0004.96
2022-06-13 07:22:00,,0816.5,4.99,0.00,29.6,28.7,00.0,38.4,31.5,11.2,0000.0,0017.03,0006.63,0004.97
2022-06-13 07:23:00,,0816.4,5.01,0.00,29.6,28.7,00.0,38.4,31.6,11.2,0000.0,0016.74,0006.62,0004.97
2022-06-13 07:24:00,,0816.4,5.00,0.00,29.6,28.8,00.0,38.4,31.6,10.6,0000.0,0017.30,0006.69,0004.97
2022-06-13 07:25:00,,0816.4,5.01,0.00,29.7,28.8,00.0,38.5,31.6,10.4,0000.0,0018.85,0006.79,0004.97
2022-06-13 07:26:00,,0816.4,4.99,0.00,29.7,28.7,00.0,38.5,31.6,10.4,0000.0,0018.60,0006.81,0004.96
2022-06-13 07:27:00,,0816.4,5.01,0.00,29.6,27.9,00.0,38.4,31.4,10.4,0000.0,0020.16,0006.79,0004.94
2022-06-13 07:28:00,,0816.3,4.98,0.00,29.6,27.5,00.0,38.3,31.2,10.4,0000.0,0021.33,0006.81,0004.95
2022-06-13 07:29:00,,0816.3,5.01,0.00,29.5,27.4,00.0,38.3,31.2,10.4,0000.0,0022.05,0006.85,0004.94
2022-06-13 07:30:00,,0816.3,4.99,0.00,29.4,27.4,00.0,38.3,31.1,10.5,0000.0,0022.06,0006.87,0004.93
2022-06-13 07:31:00,,0816.3,5.00,0.00,29.4,27.5,00.0,38.3,31.1,10.6,0000.0,0024.44,0006.90,0004.90
2022-06-13 07:32:00,,0816.3,5.00,0.00,29.4,27.6,00.0,38.3,31.2,10.8,0000.0,0024.50,0006.89,0004.87
2022-06-13 07:33:00,,0816.4,5.00,0.00,29.4,27.8,00.0,38.3,31.2,11.4,0000.0,0025.62,0006.97,0004.87
2022-06-13 07:34:00,,0816.3,4.99,0.00,29.4,27.9,00.0,38.3,31.2,12.1,0000.0,0025.89,0007.00,0004.89
2022-06-13 07:35:00,,0816.4,5.01,0.00,29.4,28.0,00.0,38.3,31.2,11.4,0000.0,0025.65,0007.02,0004.90
2022-06-13 07:36:00,,0816.3,5.00,0.00,29.4,28.1,00.0,38.3,31.3,11.7,0000.0,0024.68,0006.98,0004.90
2022-06-13 07:37:00,,0816.3,5.01,0.00,29.4,28.2,00.0,38.3,31.3,11.5,0000.0,0024.61,0006.93,0004.91
2022-06-13 07:38:00,,0816.3,5.00,0.00,29.4,28.3,00.0,38.3,31.3,11.1,0000.0,0022.90,0006.90,0004.91
2022-06-13 07:39:00,,0816.3,5.00,0.00,29.4,28.3,00.0,38.3,31.3,11.1,0000.0,0021.65,0006.87,0004.92
2022-06-13 07:40:00,,0816.3,4.99,0.00,29.5,28.4,00.0,38.3,31.4,11.0,0000.0,0020.20,0006.85,0004.92
2022-06-13 07:41:00,,0816.3,5.00,0.00,29.5,28.5,00.0,38.3,31.4,11.0,0000.0,0019.68,0006.79,0004.91
2022-06-13 07:42:00,,0816.4,5.00,0.00,29.5,28.5,00.0,38.3,31.4,11.3,0000.0,0017.42,0006.73,0004.92
2022-06-13 07:43:00,,0816.4,4.99,0.00,29.5,28.6,00.0,38.3,31.4,11.3,0000.0,0016.13,0006.69,0004.93
2022-06-13 07:44:00,,0816.4,5.00,0.00,29.5,28.6,00.0,38.4,31.5,11.8,0000.0,0015.47,0006.70,0004.93
2022-06-13 07:45:00,,0816.4,5.01,0.00,29.5,28.6,00.0,38.4,31.5,11.5,0000.0,0015.06,0006.73,0004.93
2022-06-13 07:46:00,,0816.3,5.00,0.00,29.6,28.7,00.0,38.4,31.5,11.1,0000.0,0015.06,0006.69,0004.93
2022-06-13 07:47:00,,0816.3,4.99,0.00,29.6,28.7,00.0,38.4,31.5,10.9,0000.9,0014.57,0006.64,0004.94
2022-06-13 07:48:00,,0816.3,4.99,0.00,29.6,28.7,00.0,38.4,31.5,10.7,0001.4,0014.22,0006.64,0004.94
2022-06-13 07:49:00,,0816.3,5.01,0.00,29.6,28.7,00.0,38.4,31.6,10.9,0000.6,0014.95,0006.64,0004.94
2022-06-13 07:50:00,,0816.4,5.00,0.00,29.6,28.8,00.0,38.5,31.6,10.9,0000.0,0015.91,0006.71,0004.94
2022-06-13 07:51:00,,0816.3,5.00,0.00,29.7,28.8,00.0,38.5,31.6,10.9,0000.0,0016.10,0006.70,0004.94
2022-06-13 07:52:00,,0816.4,5.01,0.00,29.7,28.8,00.0,38.5,31.6,10.9,0000.7,0016.18,0006.71,0004.95
2022-06-13 07:53:00,,0816.3,5.00,0.00,29.7,28.9,00.0,38.5,31.7,10.9,0000.3,0016.38,0006.72,0004.94
2022-06-13 07:54:00,,0816.3,5.01,0.00,29.7,28.9,00.0,38.5,31.7,10.7,0000.4,0016.54,0006.73,0004.95
2022-06-13 07:55:00,,0816.2,5.01,0.00,29.8,28.7,00.0,38.5,31.6,10.5,0001.4,0016.55,0006.67,0004.93
2022-06-13 07:56:00,,0816.3,5.00,0.00,29.7,27.9,00.0,38.4,31.4,10.7,0000.4,0016.55,0006.60,0004.91
2022-06-13 07:57:00,,0816.3,5.01,0.00,29.6,27.5,00.0,38.4,31.3,10.9,0000.0,0016.73,0006.64,0004.91
2022-06-13 07:58:00,,0816.3,4.99,0.00,29.5,27.4,00.0,38.4,31.2,10.9,0000.0,0017.09,0006.67,0004.91
2022-06-13 07:59:00,,0816.3,5.01,0.00,29.5,27.4,00.0,38.4,31.2,10.8,0000.0,0017.90,0006.76,0004.91
